COSMOS 2151

Last updated on Sun Aug 09 2026 00:02:09 GMT+0000 (Coordinated Universal Time)

1 21422U 91042A 26220.60815284 .00000723 00000+0 55094-4 0 9991 2 21422 82.4972 297.0934 0010696 264.5329 95.4675 15.00570915885978
UTC large
Height (km)
Speed (km/s)
/
Latitude / Longitude
Inclination (degrees)
Orbital Period (minutes)
Azimuth
Elevation
Range (km)
Doppler Factor

Next 0 passes for location: London (51.5072 / 0.1276)

No passes found over London.
COSMOS 2151